Thedford, NE

12:11 AM CDT on June 27, 2017 (GMT -0500)
Thedford

Weather History for KTIF - January, 2012

Change the Weather History Date:

Wednesday, January 18, 2012

  Actual Average (KANW) Record (KANW)
Temperature  
Mean Temperature 27 °F -  
Max Temperature 46 °F 33 °F 59 °F (2006)
Min Temperature 7 °F 13 °F -4 °F (2016)
Degree Days  
Heating Degree Days 38    
Moisture  
Dew Point 8 °F    
Average Humidity 52    
Maximum Humidity 77    
Minimum Humidity 24    
Precipitation  
Precipitation 0.00 in - - ()
Sea Level Pressure  
Sea Level Pressure 29.83 in    
Wind  
Wind Speed 13 mph (WNW)    
Max Wind Speed 24 mph    
Max Gust Speed 34 mph    
Visibility 10 miles    
Events      
Averages and records for this station are not official NWS values.
T = Trace of Precipitation, MM = Missing Value Source: NWS Daily Summary

Daily Weather History Graph

Daily Weather History Graph

Search for Another Location

Airport or City:

Trip Planner

Search our weather history database for the weather conditions in past years. The results will help you decide how hot, cold, wet, or windy it might be!

Date:

Astronomy

Jan. 18, 2012 Rise Set
Actual Time 8:06 AM CST 5:39 PM CST
Civil Twilight 7:35 AM CST 6:09 PM CST
Nautical Twilight 7:01 AM CST 6:44 PM CST
Astronomical Twilight 6:28 AM CST 7:17 PM CST
Moon 3:38 AM CST (1/18) 1:19 PM CST (1/18)
Length of Visible Light 10h 34m
Length of Day
9h 32m
Waning Crescent, 24% of the Moon is Illuminated
Jan 18
Waning Crescent
Jan 23
New
Jan 30
First Quarter
Feb 7
Full
Feb 14
Last Quarter

Hourly Weather History & Observations

Time (CST) Temp. Windchill Dew Point Humidity Pressure Visibility Wind Dir Wind Speed Gust Speed Precip Events Conditions
12:15 AM 20.8 °F 8.4 °F 9.1 °F 61% 29.98 in 10.0 mi SW 12.7 mph - N/A   Clear
12:35 AM 19.4 °F 7.9 °F 7.7 °F 60% 29.98 in 10.0 mi SW 10.4 mph - N/A   Clear
12:55 AM 18.5 °F 9.3 °F 7.0 °F 61% 29.97 in 10.0 mi SW 6.9 mph - N/A   Clear
2:15 AM 18.1 °F 5.0 °F 8.4 °F 66% 29.92 in 10.0 mi SW 12.7 mph - N/A   Clear
2:35 AM 18.5 °F 5.5 °F 9.0 °F 66% 29.91 in 10.0 mi SW 12.7 mph 18.4 mph N/A   Clear
2:55 AM 19.0 °F 6.8 °F 9.3 °F 66% 29.90 in 10.0 mi WSW 11.5 mph - N/A   Clear
3:15 AM 19.4 °F 6.0 °F 9.9 °F 66% 29.90 in 10.0 mi WSW 13.8 mph - N/A   Clear
3:35 AM 20.3 °F 7.7 °F 9.5 °F 63% 29.89 in 10.0 mi SW 12.7 mph - N/A   Clear
3:55 AM 21.0 °F 7.6 °F 8.8 °F 59% 29.86 in 10.0 mi SW 15.0 mph - N/A   Clear
4:15 AM 21.0 °F 7.1 °F 8.2 °F 58% 29.85 in 10.0 mi SW 16.1 mph - N/A   Clear
4:35 AM 21.0 °F 6.6 °F 7.7 °F 56% 29.85 in 10.0 mi SW 17.3 mph - N/A   Clear
4:55 AM 21.0 °F 8.6 °F 6.8 °F 54% 29.85 in 10.0 mi WSW 12.7 mph 20.7 mph N/A   Clear
5:15 AM 20.8 °F 9.0 °F 6.6 °F 54% 29.84 in 10.0 mi WSW 11.5 mph - N/A   Clear
6:15 AM 22.1 °F 12.0 °F 6.3 °F 51% 29.82 in 10.0 mi West 9.2 mph - N/A   Clear
6:35 AM 21.4 °F 10.4 °F 5.9 °F 51% 29.82 in 10.0 mi West 10.4 mph - N/A   Clear
6:55 AM 20.3 °F 9.8 °F 5.7 °F 53% 29.81 in 10.0 mi West 9.2 mph - N/A   Clear
7:15 AM 21.0 °F - 5.5 °F 51% 29.81 in 10.0 mi Calm Calm - N/A   Clear
7:35 AM 20.3 °F 11.5 °F 5.4 °F 52% 29.80 in 10.0 mi West 6.9 mph - N/A   Clear
7:55 AM 21.2 °F 9.5 °F 5.0 °F 50% 29.80 in 10.0 mi West 11.5 mph - N/A   Clear
8:15 AM 21.6 °F 8.8 °F 5.5 °F 50% 29.81 in 10.0 mi WSW 13.8 mph - N/A   Clear
8:35 AM 23.2 °F 10.8 °F 5.9 °F 48% 29.81 in 10.0 mi WSW 13.8 mph - N/A   Clear
8:55 AM 25.9 °F 14.8 °F 6.4 °F 44% 29.81 in 10.0 mi West 12.7 mph - N/A   Clear
9:15 AM 28.6 °F 17.2 °F 6.8 °F 40% 29.81 in 10.0 mi West 15.0 mph - N/A   Clear
9:35 AM 30.6 °F 19.0 °F 6.6 °F 36% 29.81 in 10.0 mi West 17.3 mph 23.0 mph N/A   Clear
9:55 AM 31.8 °F 19.9 °F 7.0 °F 35% 29.81 in 10.0 mi West 19.6 mph 27.6 mph N/A   Clear
10:15 AM 33.1 °F 20.9 °F 7.7 °F 35% 29.81 in 10.0 mi West 21.9 mph 25.3 mph N/A   Clear
10:35 AM 34.9 °F 24.9 °F 9.1 °F 34% 29.81 in 10.0 mi West 16.1 mph - N/A   Clear
10:55 AM 36.7 °F 26.0 °F 8.6 °F 31% 29.80 in 10.0 mi West 20.7 mph 27.6 mph N/A   Clear
11:15 AM 38.3 °F 27.8 °F 9.9 °F 31% 29.80 in 10.0 mi West 21.9 mph 28.8 mph N/A   Clear
11:35 AM 39.2 °F 29.3 °F 9.5 °F 29% 29.80 in 10.0 mi West 20.7 mph 32.2 mph N/A   Clear
11:55 AM 40.5 °F 30.7 °F 10.6 °F 29% 29.79 in 10.0 mi West 21.9 mph 31.1 mph N/A   Clear
12:15 PM 41.7 °F 32.3 °F 10.6 °F 28% 29.78 in 10.0 mi West 21.9 mph 27.6 mph N/A   Clear
12:35 PM 42.8 °F 34.0 °F 10.9 °F 27% 29.78 in 10.0 mi WNW 20.7 mph 25.3 mph N/A   Clear
12:55 PM 43.7 °F 35.2 °F 11.5 °F 27% 29.76 in 10.0 mi West 20.7 mph 25.3 mph N/A   Clear
1:35 PM 45.7 °F 37.1 °F 10.9 °F 24% 29.73 in 10.0 mi West 24.2 mph 34.5 mph N/A   Clear
1:55 PM 46.2 °F 38.5 °F 11.1 °F 24% 29.72 in 10.0 mi WNW 20.7 mph 28.8 mph N/A   Clear
2:15 PM 45.9 °F 37.4 °F 10.8 °F 24% 29.73 in 10.0 mi WNW 24.2 mph 31.1 mph N/A   Clear
2:35 PM 39.6 °F 31.7 °F 12.2 °F 33% 29.73 in 10.0 mi North 13.8 mph 25.3 mph N/A   Clear
2:55 PM 33.4 °F 23.1 °F 15.1 °F 47% 29.75 in 10.0 mi North 16.1 mph 27.6 mph N/A   Clear
3:15 PM 31.8 °F 21.4 °F 13.8 °F 47% 29.76 in 10.0 mi North 15.0 mph 19.6 mph N/A   Clear
3:35 PM 31.8 °F 21.4 °F 12.0 °F 44% 29.77 in 10.0 mi North 15.0 mph 19.6 mph N/A   Clear
3:55 PM 30.7 °F 20.4 °F 10.2 °F 42% 29.78 in 10.0 mi North 13.8 mph 20.7 mph N/A   Clear
4:35 PM 27.7 °F 17.1 °F 12.9 °F 54% 29.80 in 10.0 mi NNE 12.7 mph 17.3 mph N/A   Clear
4:55 PM 26.4 °F 20.9 °F 13.5 °F 58% 29.80 in 10.0 mi NNE 4.6 mph 12.7 mph N/A   Clear
5:15 PM 24.6 °F 12.7 °F 13.6 °F 63% 29.80 in 10.0 mi North 13.8 mph 17.3 mph N/A   Clear
5:35 PM 21.0 °F 10.6 °F 12.6 °F 70% 29.82 in 10.0 mi NNE 9.2 mph - N/A   Clear
5:55 PM 19.4 °F - 12.0 °F 73% 29.82 in 10.0 mi Calm Calm - N/A   Clear
6:15 PM 17.4 °F 6.2 °F 11.3 °F 77% 29.82 in 10.0 mi North 9.2 mph - N/A   Clear
6:35 PM 15.4 °F 1.0 °F 9.5 °F 77% 29.84 in 10.0 mi North 13.8 mph - N/A   Clear
6:55 PM 13.8 °F 2.7 °F 6.6 °F 73% 29.85 in 10.0 mi North 8.1 mph - N/A   Clear
7:15 PM 12.4 °F 4.6 °F 5.5 °F 74% 29.85 in 10.0 mi North 4.6 mph - N/A   Clear
7:35 PM 11.1 °F 4.9 °F 4.5 °F 75% 29.86 in 10.0 mi North 3.5 mph - N/A   Clear
7:55 PM 10.2 °F 3.8 °F 2.8 °F 72% 29.86 in 10.0 mi North 3.5 mph - N/A   Clear
8:15 PM 9.0 °F -3.2 °F 1.2 °F 71% 29.86 in 10.0 mi North 8.1 mph - N/A   Clear
8:35 PM 8.2 °F - 1.0 °F 72% 29.87 in 10.0 mi Calm Calm - N/A   Clear
8:55 PM 7.7 °F -7.4 °F 0.9 °F 74% 29.88 in 10.0 mi North 11.5 mph - N/A   Clear
9:35 PM 6.4 °F - 0.5 °F 77% 29.89 in 10.0 mi Calm Calm - N/A   Clear
9:55 PM 5.9 °F - -0.4 °F 75% 29.88 in 10.0 mi Calm Calm - N/A   Clear
10:15 PM 5.7 °F -8.2 °F -1.3 °F 73% 29.88 in 10.0 mi NNE 9.2 mph - N/A   Clear
10:35 PM 5.0 °F -12.3 °F -2.0 °F 73% 29.86 in 10.0 mi NNE 13.8 mph - N/A   Clear
10:55 PM 4.1 °F -3.2 °F -3.6 °F 70% 29.87 in 10.0 mi NNE 3.5 mph 9.2 mph N/A   Scattered Clouds
11:15 PM 3.6 °F -11.8 °F -4.0 °F 71% 29.87 in 10.0 mi NNE 10.4 mph - N/A   Clear
11:35 PM 3.2 °F -12.2 °F -4.0 °F 72% 29.88 in 10.0 mi NNE 10.4 mph 16.1 mph N/A   Clear